owner,sensor,date,latitude,longitude,air_pressure(mBar),qcFlag 
TABS,ioos:station:wmo:42047:1,2010-01-01T00:00:00Z,27.8966,-93.5973,1017.39,11111222 
TABS,ioos:station:wmo:42047:1,2010-01-01T00:30:00Z,27.8966,-93.5973,1017.78,11111222 
TABS,ioos:station:wmo:42047:1,2010-01-01T01:00:00Z,27.8966,-93.5973,1018.17,11111222 
TABS,ioos:station:wmo:42047:1,2010-01-01T01:30:00Z,27.8966,-93.5973,1018.36,11111222 
TABS,ioos:station:wmo:42047:1,2010-01-01T02:00:00Z,27.8966,-93.5973,1018.65,11111222 
TABS,ioos:station:wmo:42047:1,2010-01-01T02:30:00Z,27.8966,-93.5973,1018.55,11111222 
TABS,ioos:station:wmo:42047:1,2010-01-01T03:00:00Z,27.8966,-93.5973,1018.38,11111222 
TABS,ioos:station:wmo:42047:1,2010-01-01T03:30:00Z,27.8966,-93.5973,1018.71,11111222 
TABS,ioos:station:wmo:42047:1,2010-01-01T04:00:00Z,27.8966,-93.5973,1018.4,11111222 
TABS,ioos:station:wmo:42047:1,2010-01-01T04:30:00Z,27.8966,-93.5973,1018.35,11111222 
TABS,ioos:station:wmo:42047:1,2010-01-01T05:00:00Z,27.8966,-93.5973,1019.38,11111222 
TABS,ioos:station:wmo:42047:1,2010-01-01T05:30:00Z,27.8966,-93.5973,1020.15,11111222 
TABS,ioos:station:wmo:42047:1,2010-01-01T06:00:00Z,27.8966,-93.5973,1021.01,11111222 
TABS,ioos:station:wmo:42047:1,2010-01-01T06:30:00Z,27.8966,-93.5973,1021.14,11111222 
TABS,ioos:station:wmo:42047:1,2010-01-01T07:00:00Z,27.8966,-93.5973,1021.92,11111222 
TABS,ioos:station:wmo:42047:1,2010-01-01T07:30:00Z,27.8966,-93.5973,1021.94,11111222 
TABS,ioos:station:wmo:42047:1,2010-01-01T08:00:00Z,27.8966,-93.5973,1021.98,11111222 
TABS,ioos:station:wmo:42047:1,2010-01-01T08:30:00Z,27.8966,-93.5973,1022.15,11111222 
TABS,ioos:station:wmo:42047:1,2010-01-01T09:00:00Z,27.8966,-93.5973,1022.56,11111222 
TABS,ioos:station:wmo:42047:1,2010-01-01T09:30:00Z,27.8966,-93.5973,1023.23,11111222 
TABS,ioos:station:wmo:42047:1,2010-01-01T10:00:00Z,27.8966,-93.5973,1023.41,11111222 
TABS,ioos:station:wmo:42047:1,2010-01-01T10:30:00Z,27.8966,-93.5973,1022.96,11111222 
TABS,ioos:station:wmo:42047:1,2010-01-01T11:00:00Z,27.8966,-93.5973,1024.05,11111222 
TABS,ioos:station:wmo:42047:1,2010-01-01T11:30:00Z,27.8966,-93.5973,1024.61,11111222 
TABS,ioos:station:wmo:42047:1,2010-01-01T12:00:00Z,27.8966,-93.5973,1024.88,11111222 
TABS,ioos:station:wmo:42047:1,2010-01-01T12:30:00Z,27.8966,-93.5973,1025.02,11111222 
TABS,ioos:station:wmo:42047:1,2010-01-01T13:00:00Z,27.8966,-93.5973,1025.19,11111222 
TABS,ioos:station:wmo:42047:1,2010-01-01T13:30:00Z,27.8966,-93.5973,1024.93,11111222 
TABS,ioos:station:wmo:42047:1,2010-01-01T14:00:00Z,27.8966,-93.5973,1026.08,11111222 
TABS,ioos:station:wmo:42047:1,2010-01-01T14:30:00Z,27.8966,-93.5973,1026.58,11111222 
TABS,ioos:station:wmo:42047:1,2010-01-01T15:00:00Z,27.8966,-93.5973,1027.35,11111222 
TABS,ioos:station:wmo:42047:1,2010-01-01T15:30:00Z,27.8966,-93.5973,1027.8,11111222 
TABS,ioos:station:wmo:42047:1,2010-01-01T16:00:00Z,27.8966,-93.5973,1028.42,11111222 
TABS,ioos:station:wmo:42047:1,2010-01-01T16:30:00Z,27.8966,-93.5973,1028.61,11111222 
TABS,ioos:station:wmo:42047:1,2010-01-01T17:00:00Z,27.8966,-93.5973,1028.61,11111222 
TABS,ioos:station:wmo:42047:1,2010-01-01T17:30:00Z,27.8966,-93.5973,1028.32,11111222 
TABS,ioos:station:wmo:42047:1,2010-01-01T18:00:00Z,27.8966,-93.5973,1028.17,11111222 
TABS,ioos:station:wmo:42047:1,2010-01-01T18:30:00Z,27.8966,-93.5973,1028.31,11111222 
TABS,ioos:station:wmo:42047:1,2010-01-01T19:00:00Z,27.8966,-93.5973,1027.45,11111222 
TABS,ioos:station:wmo:42047:1,2010-01-01T19:30:00Z,27.8966,-93.5973,1027.58,11111222 
TABS,ioos:station:wmo:42047:1,2010-01-01T20:00:00Z,27.8966,-93.5973,1027.31,11111222 
TABS,ioos:station:wmo:42047:1,2010-01-01T20:30:00Z,27.8966,-93.5973,1026.9,11111222 
TABS,ioos:station:wmo:42047:1,2010-01-01T21:00:00Z,27.8966,-93.5973,1026.68,11111222 
TABS,ioos:station:wmo:42047:1,2010-01-01T21:30:00Z,27.8966,-93.5973,1026.61,11111222 
TABS,ioos:station:wmo:42047:1,2010-01-01T22:00:00Z,27.8966,-93.5973,1026.35,11111222 
TABS,ioos:station:wmo:42047:1,2010-01-01T22:30:00Z,27.8966,-93.5973,1026.39,11111222 
TABS,ioos:station:wmo:42047:1,2010-01-01T23:00:00Z,27.8966,-93.5973,1026.35,11111222 
TABS,ioos:station:wmo:42047:1,2010-01-01T23:30:00Z,27.8966,-93.5973,1026.12,11111222 
TABS,ioos:station:wmo:42047:1,2010-01-02T00:00:00Z,27.8966,-93.5973,1026.55,11111222 
TABS,ioos:station:wmo:42047:1,2010-01-02T00:30:00Z,27.8966,-93.5973,1027.14,11111222 
TABS,ioos:station:wmo:42047:1,2010-01-02T01:00:00Z,27.8966,-93.5973,1027.22,11111222 
TABS,ioos:station:wmo:42047:1,2010-01-02T01:30:00Z,27.8966,-93.5973,1027.48,11111222 
TABS,ioos:station:wmo:42047:1,2010-01-02T02:00:00Z,27.8966,-93.5973,1027.76,11111222 
TABS,ioos:station:wmo:42047:1,2010-01-02T02:30:00Z,27.8966,-93.5973,1027.88,11111222 
TABS,ioos:station:wmo:42047:1,2010-01-02T03:00:00Z,27.8966,-93.5973,1027.63,11111222 
TABS,ioos:station:wmo:42047:1,2010-01-02T03:30:00Z,27.8966,-93.5973,1027.93,11111222 
TABS,ioos:station:wmo:42047:1,2010-01-02T04:00:00Z,27.8966,-93.5973,1027.1,11111222 
TABS,ioos:station:wmo:42047:1,2010-01-02T04:30:00Z,27.8966,-93.5973,1027.44,11111222 
TABS,ioos:station:wmo:42047:1,2010-01-02T05:00:00Z,27.8966,-93.5973,1027.86,11111222 
TABS,ioos:station:wmo:42047:1,2010-01-02T05:30:00Z,27.8966,-93.5973,1027.78,11111222 
TABS,ioos:station:wmo:42047:1,2010-01-02T06:00:00Z,27.8966,-93.5973,1027.26,11111222 
TABS,ioos:station:wmo:42047:1,2010-01-02T06:30:00Z,27.8966,-93.5973,1026.87,11111222 
TABS,ioos:station:wmo:42047:1,2010-01-02T07:00:00Z,27.8966,-93.5973,1026.84,11111222 
TABS,ioos:station:wmo:42047:1,2010-01-02T07:30:00Z,27.8966,-93.5973,1026.93,11111222 
TABS,ioos:station:wmo:42047:1,2010-01-02T08:00:00Z,27.8966,-93.5973,1026.92,11111222 
TABS,ioos:station:wmo:42047:1,2010-01-02T08:30:00Z,27.8966,-93.5973,1026.79,11111222 
TABS,ioos:station:wmo:42047:1,2010-01-02T09:00:00Z,27.8966,-93.5973,1025.93,11111222 
TABS,ioos:station:wmo:42047:1,2010-01-02T09:30:00Z,27.8966,-93.5973,1026.31,11111222 
TABS,ioos:station:wmo:42047:1,2010-01-02T10:00:00Z,27.8966,-93.5973,1026.45,11111222 
TABS,ioos:station:wmo:42047:1,2010-01-02T10:30:00Z,27.8966,-93.5973,1026.09,11111222 
TABS,ioos:station:wmo:42047:1,2010-01-02T11:00:00Z,27.8966,-93.5973,1026.06,11111222 
TABS,ioos:station:wmo:42047:1,2010-01-02T11:30:00Z,27.8966,-93.5973,1026.42,11111222 
TABS,ioos:station:wmo:42047:1,2010-01-02T12:00:00Z,27.8966,-93.5973,1026.68,11111222 
TABS,ioos:station:wmo:42047:1,2010-01-02T12:30:00Z,27.8966,-93.5973,1026.94,11111222 
TABS,ioos:station:wmo:42047:1,2010-01-02T13:00:00Z,27.8966,-93.5973,1026.84,11111222 
TABS,ioos:station:wmo:42047:1,2010-01-02T13:30:00Z,27.8966,-93.5973,1026.75,11111222 
TABS,ioos:station:wmo:42047:1,2010-01-02T14:00:00Z,27.8966,-93.5973,1027.5,11111222 
TABS,ioos:station:wmo:42047:1,2010-01-02T14:30:00Z,27.8966,-93.5973,1027.76,11111222 
TABS,ioos:station:wmo:42047:1,2010-01-02T15:00:00Z,27.8966,-93.5973,1027.82,11111222 
TABS,ioos:station:wmo:42047:1,2010-01-02T15:30:00Z,27.8966,-93.5973,1027.79,11111222 
TABS,ioos:station:wmo:42047:1,2010-01-02T16:00:00Z,27.8966,-93.5973,1028.02,11111222 
TABS,ioos:station:wmo:42047:1,2010-01-02T16:30:00Z,27.8966,-93.5973,1027.63,11111222 
TABS,ioos:station:wmo:42047:1,2010-01-02T17:00:00Z,27.8966,-93.5973,1027.21,11111222 
TABS,ioos:station:wmo:42047:1,2010-01-02T17:30:00Z,27.8966,-93.5973,1026.65,11111222 
TABS,ioos:station:wmo:42047:1,2010-01-02T18:00:00Z,27.8966,-93.5973,1026.27,11111222 
TABS,ioos:station:wmo:42047:1,2010-01-02T18:30:00Z,27.8966,-93.5973,1025.52,11111222 
TABS,ioos:station:wmo:42047:1,2010-01-02T19:00:00Z,27.8966,-93.5973,1024.7,11111222 
TABS,ioos:station:wmo:42047:1,2010-01-02T19:30:00Z,27.8966,-93.5973,1024.49,11111222 
TABS,ioos:station:wmo:42047:1,2010-01-02T20:00:00Z,27.8966,-93.5973,1024.42,11111222 
TABS,ioos:station:wmo:42047:1,2010-01-02T20:30:00Z,27.8966,-93.5973,1024.11,11111222 
TABS,ioos:station:wmo:42047:1,2010-01-02T21:00:00Z,27.8966,-93.5973,1023.93,11111222 
TABS,ioos:station:wmo:42047:1,2010-01-02T21:30:00Z,27.8966,-93.5973,1023.95,11111222 
TABS,ioos:station:wmo:42047:1,2010-01-02T22:00:00Z,27.8966,-93.5973,1023.51,11111222 
TABS,ioos:station:wmo:42047:1,2010-01-02T22:30:00Z,27.8966,-93.5973,1023.5,11111222 
TABS,ioos:station:wmo:42047:1,2010-01-02T23:00:00Z,27.8966,-93.5973,1023.19,11111222 
TABS,ioos:station:wmo:42047:1,2010-01-02T23:30:00Z,27.8966,-93.5973,1023.2,11111222 
TABS,ioos:station:wmo:42047:1,2010-01-03T00:00:00Z,27.8966,-93.5973,1023.31,11111222 
TABS,ioos:station:wmo:42047:1,2010-01-03T00:30:00Z,27.8966,-93.5973,1023.86,11111222 
TABS,ioos:station:wmo:42047:1,2010-01-03T01:00:00Z,27.8966,-93.5973,1023.76,11111222 
TABS,ioos:station:wmo:42047:1,2010-01-03T01:30:00Z,27.8966,-93.5973,1023.73,11111222 
TABS,ioos:station:wmo:42047:1,2010-01-03T02:00:00Z,27.8966,-93.5973,1023.27,11111222 
TABS,ioos:station:wmo:42047:1,2010-01-03T02:30:00Z,27.8966,-93.5973,1023.33,11111222 
TABS,ioos:station:wmo:42047:1,2010-01-03T03:00:00Z,27.8966,-93.5973,1023.32,11111222 
TABS,ioos:station:wmo:42047:1,2010-01-03T03:30:00Z,27.8966,-93.5973,1023.44,11111222 
TABS,ioos:station:wmo:42047:1,2010-01-03T04:00:00Z,27.8966,-93.5973,1023.34,11111222 
TABS,ioos:station:wmo:42047:1,2010-01-03T04:30:00Z,27.8966,-93.5973,1022.94,11111222 
TABS,ioos:station:wmo:42047:1,2010-01-03T05:00:00Z,27.8966,-93.5973,1022.71,11111222 
TABS,ioos:station:wmo:42047:1,2010-01-03T05:30:00Z,27.8966,-93.5973,1022.55,11111222 
TABS,ioos:station:wmo:42047:1,2010-01-03T06:00:00Z,27.8966,-93.5973,1022.11,11111222 
TABS,ioos:station:wmo:42047:1,2010-01-03T06:30:00Z,27.8966,-93.5973,1021.65,11111222 
TABS,ioos:station:wmo:42047:1,2010-01-03T07:00:00Z,27.8966,-93.5973,1021.04,11111222 
TABS,ioos:station:wmo:42047:1,2010-01-03T07:30:00Z,27.8966,-93.5973,1021.36,11111222 
TABS,ioos:station:wmo:42047:1,2010-01-03T08:00:00Z,27.8966,-93.5973,1021.08,11111222 
TABS,ioos:station:wmo:42047:1,2010-01-03T08:30:00Z,27.8966,-93.5973,1020.98,11111222 
TABS,ioos:station:wmo:42047:1,2010-01-03T09:00:00Z,27.8966,-93.5973,1020.66,11111222 
TABS,ioos:station:wmo:42047:1,2010-01-03T09:30:00Z,27.8966,-93.5973,1020.61,11111222 
TABS,ioos:station:wmo:42047:1,2010-01-03T10:00:00Z,27.8966,-93.5973,1020.29,11111222 
TABS,ioos:station:wmo:42047:1,2010-01-03T10:30:00Z,27.8966,-93.5973,1020.21,11111222 
TABS,ioos:station:wmo:42047:1,2010-01-03T11:00:00Z,27.8966,-93.5973,1020.15,11111222 
TABS,ioos:station:wmo:42047:1,2010-01-03T11:30:00Z,27.8966,-93.5973,1020.08,11111222 
TABS,ioos:station:wmo:42047:1,2010-01-03T12:00:00Z,27.8966,-93.5973,1020.63,11111222 
TABS,ioos:station:wmo:42047:1,2010-01-03T12:30:00Z,27.8966,-93.5973,1020.95,11111222 
TABS,ioos:station:wmo:42047:1,2010-01-03T13:00:00Z,27.8966,-93.5973,1021.12,11111222 
TABS,ioos:station:wmo:42047:1,2010-01-03T13:30:00Z,27.8966,-93.5973,1021.21,11111222 
TABS,ioos:station:wmo:42047:1,2010-01-03T14:00:00Z,27.8966,-93.5973,1021.5,11111222 
TABS,ioos:station:wmo:42047:1,2010-01-03T14:30:00Z,27.8966,-93.5973,1021.41,11111222 
TABS,ioos:station:wmo:42047:1,2010-01-03T15:00:00Z,27.8966,-93.5973,1022.12,11111222 
TABS,ioos:station:wmo:42047:1,2010-01-03T15:30:00Z,27.8966,-93.5973,1022.34,11111222 
TABS,ioos:station:wmo:42047:1,2010-01-03T16:00:00Z,27.8966,-93.5973,1022.11,11111222 
TABS,ioos:station:wmo:42047:1,2010-01-03T16:30:00Z,27.8966,-93.5973,1022.06,11111222 
TABS,ioos:station:wmo:42047:1,2010-01-03T17:00:00Z,27.8966,-93.5973,1021.9,11111222 
TABS,ioos:station:wmo:42047:1,2010-01-03T17:30:00Z,27.8966,-93.5973,1021.6,11111222 
TABS,ioos:station:wmo:42047:1,2010-01-03T18:00:00Z,27.8966,-93.5973,1021.09,11111222 
TABS,ioos:station:wmo:42047:1,2010-01-03T18:30:00Z,27.8966,-93.5973,1020.72,11111222 
TABS,ioos:station:wmo:42047:1,2010-01-03T19:00:00Z,27.8966,-93.5973,1020.75,11111222 
TABS,ioos:station:wmo:42047:1,2010-01-03T19:30:00Z,27.8966,-93.5973,1020.51,11111222 
TABS,ioos:station:wmo:42047:1,2010-01-03T20:00:00Z,27.8966,-93.5973,1020.5,11111222 
TABS,ioos:station:wmo:42047:1,2010-01-03T20:30:00Z,27.8966,-93.5973,1020.28,11111222 
TABS,ioos:station:wmo:42047:1,2010-01-03T21:00:00Z,27.8966,-93.5973,1020.63,11111222 
TABS,ioos:station:wmo:42047:1,2010-01-03T21:30:00Z,27.8966,-93.5973,1020.91,11111222 
TABS,ioos:station:wmo:42047:1,2010-01-03T22:00:00Z,27.8966,-93.5973,1020.95,11111222 
TABS,ioos:station:wmo:42047:1,2010-01-03T22:30:00Z,27.8966,-93.5973,1021.32,11111222 
TABS,ioos:station:wmo:42047:1,2010-01-03T23:00:00Z,27.8966,-93.5973,1021.44,11111222 
TABS,ioos:station:wmo:42047:1,2010-01-03T23:30:00Z,27.8966,-93.5973,1021.32,11111222 
TABS,ioos:station:wmo:42047:1,2010-01-04T00:00:00Z,27.8966,-93.5973,1021.56,11111222 
TABS,ioos:station:wmo:42047:1,2010-01-04T00:30:00Z,27.8966,-93.5973,1021.83,11111222 
TABS,ioos:station:wmo:42047:1,2010-01-04T01:00:00Z,27.8966,-93.5973,1022.2,11111222 
TABS,ioos:station:wmo:42047:1,2010-01-04T01:30:00Z,27.8966,-93.5973,1022.23,11111222 
TABS,ioos:station:wmo:42047:1,2010-01-04T02:00:00Z,27.8966,-93.5973,1022.65,11111222 
TABS,ioos:station:wmo:42047:1,2010-01-04T02:30:00Z,27.8966,-93.5973,1023.03,11111222 
TABS,ioos:station:wmo:42047:1,2010-01-04T03:00:00Z,27.8966,-93.5973,1023.16,11111222 
TABS,ioos:station:wmo:42047:1,2010-01-04T03:30:00Z,27.8966,-93.5973,1023.42,11111222 
TABS,ioos:station:wmo:42047:1,2010-01-04T04:00:00Z,27.8966,-93.5973,1023.98,11111222 
TABS,ioos:station:wmo:42047:1,2010-01-04T04:30:00Z,27.8966,-93.5973,1023.85,11111222 
TABS,ioos:station:wmo:42047:1,2010-01-04T05:00:00Z,27.8966,-93.5973,1024.02,11111222 
TABS,ioos:station:wmo:42047:1,2010-01-04T05:30:00Z,27.8966,-93.5973,1024.26,11111222 
TABS,ioos:station:wmo:42047:1,2010-01-04T06:00:00Z,27.8966,-93.5973,1023.71,11111222 
TABS,ioos:station:wmo:42047:1,2010-01-04T06:30:00Z,27.8966,-93.5973,1024.05,11111222 
TABS,ioos:station:wmo:42047:1,2010-01-04T07:00:00Z,27.8966,-93.5973,1023.7,11111222 
TABS,ioos:station:wmo:42047:1,2010-01-04T07:30:00Z,27.8966,-93.5973,1023.95,11111222 
TABS,ioos:station:wmo:42047:1,2010-01-04T08:00:00Z,27.8966,-93.5973,1023.72,11111222 
TABS,ioos:station:wmo:42047:1,2010-01-04T08:30:00Z,27.8966,-93.5973,1023.86,11111222 
TABS,ioos:station:wmo:42047:1,2010-01-04T09:00:00Z,27.8966,-93.5973,1024.32,11111222 
TABS,ioos:station:wmo:42047:1,2010-01-04T09:30:00Z,27.8966,-93.5973,1024.49,11111222 
TABS,ioos:station:wmo:42047:1,2010-01-04T10:00:00Z,27.8966,-93.5973,1024.81,11111222 
TABS,ioos:station:wmo:42047:1,2010-01-04T10:30:00Z,27.8966,-93.5973,1024.97,11111222 
TABS,ioos:station:wmo:42047:1,2010-01-04T11:00:00Z,27.8966,-93.5973,1025.07,11111222 
TABS,ioos:station:wmo:42047:1,2010-01-04T11:30:00Z,27.8966,-93.5973,1024.71,11111222 
TABS,ioos:station:wmo:42047:1,2010-01-04T12:00:00Z,27.8966,-93.5973,1025.21,11111222 
TABS,ioos:station:wmo:42047:1,2010-01-04T12:30:00Z,27.8966,-93.5973,1025.78,11111222 
TABS,ioos:station:wmo:42047:1,2010-01-04T13:00:00Z,27.8966,-93.5973,1025.99,11111222 
TABS,ioos:station:wmo:42047:1,2010-01-04T13:30:00Z,27.8966,-93.5973,1025.69,11111222 
TABS,ioos:station:wmo:42047:1,2010-01-04T14:00:00Z,27.8966,-93.5973,1026.22,11111222 
TABS,ioos:station:wmo:42047:1,2010-01-04T14:30:00Z,27.8966,-93.5973,1026.88,11111222 
TABS,ioos:station:wmo:42047:1,2010-01-04T15:00:00Z,27.8966,-93.5973,1027.26,11111222 
TABS,ioos:station:wmo:42047:1,2010-01-04T15:30:00Z,27.8966,-93.5973,1027.73,11111222 
TABS,ioos:station:wmo:42047:1,2010-01-04T16:00:00Z,27.8966,-93.5973,1027.76,11111222 
TABS,ioos:station:wmo:42047:1,2010-01-04T16:30:00Z,27.8966,-93.5973,1028.01,11111222 
TABS,ioos:station:wmo:42047:1,2010-01-04T17:00:00Z,27.8966,-93.5973,1027.81,11111222 
TABS,ioos:station:wmo:42047:1,2010-01-04T17:30:00Z,27.8966,-93.5973,1027.42,11111222 
TABS,ioos:station:wmo:42047:1,2010-01-04T18:00:00Z,27.8966,-93.5973,1026.93,11111222 
TABS,ioos:station:wmo:42047:1,2010-01-04T18:30:00Z,27.8966,-93.5973,1026.92,11111222 
TABS,ioos:station:wmo:42047:1,2010-01-04T19:00:00Z,27.8966,-93.5973,1026.79,11111222 
TABS,ioos:station:wmo:42047:1,2010-01-04T19:30:00Z,27.8966,-93.5973,1026.8,11111222 
TABS,ioos:station:wmo:42047:1,2010-01-04T20:00:00Z,27.8966,-93.5973,1026.66,11111222 
TABS,ioos:station:wmo:42047:1,2010-01-04T20:30:00Z,27.8966,-93.5973,1026.7,11111222 
TABS,ioos:station:wmo:42047:1,2010-01-04T21:00:00Z,27.8966,-93.5973,1026.81,11111222 
TABS,ioos:station:wmo:42047:1,2010-01-04T21:30:00Z,27.8966,-93.5973,1026.94,11111222 
TABS,ioos:station:wmo:42047:1,2010-01-04T22:00:00Z,27.8966,-93.5973,1027.39,11111222 
TABS,ioos:station:wmo:42047:1,2010-01-04T22:30:00Z,27.8966,-93.5973,1027.42,11111222 
TABS,ioos:station:wmo:42047:1,2010-01-04T23:00:00Z,27.8966,-93.5973,1027.6,11111222 
TABS,ioos:station:wmo:42047:1,2010-01-04T23:30:00Z,27.8966,-93.5973,1027.88,11111222 
TABS,ioos:station:wmo:42047:1,2010-01-05T00:00:00Z,27.8966,-93.5973,1028.29,11111222 
TABS,ioos:station:wmo:42047:1,2010-01-05T00:30:00Z,27.8966,-93.5973,1028.2,11111222 
TABS,ioos:station:wmo:42047:1,2010-01-05T01:00:00Z,27.8966,-93.5973,1028.55,11111222 
TABS,ioos:station:wmo:42047:1,2010-01-05T01:30:00Z,27.8966,-93.5973,1028.76,11111222 
TABS,ioos:station:wmo:42047:1,2010-01-05T02:00:00Z,27.8966,-93.5973,1029.16,11111222 
TABS,ioos:station:wmo:42047:1,2010-01-05T02:30:00Z,27.8966,-93.5973,1029.17,11111222 
TABS,ioos:station:wmo:42047:1,2010-01-05T03:00:00Z,27.8966,-93.5973,1029.35,11111222 
TABS,ioos:station:wmo:42047:1,2010-01-05T03:30:00Z,27.8966,-93.5973,1029.91,11111222 
TABS,ioos:station:wmo:42047:1,2010-01-05T04:00:00Z,27.8966,-93.5973,1029.71,11111222 
TABS,ioos:station:wmo:42047:1,2010-01-05T04:30:00Z,27.8966,-93.5973,1029.62,11111222 
TABS,ioos:station:wmo:42047:1,2010-01-05T05:00:00Z,27.8966,-93.5973,1029.65,11111222 
TABS,ioos:station:wmo:42047:1,2010-01-05T05:30:00Z,27.8966,-93.5973,1029.79,11111222 
TABS,ioos:station:wmo:42047:1,2010-01-05T06:00:00Z,27.8966,-93.5973,1029.89,11111222 
TABS,ioos:station:wmo:42047:1,2010-01-05T06:30:00Z,27.8966,-93.5973,1029.99,11111222 
TABS,ioos:station:wmo:42047:1,2010-01-05T07:00:00Z,27.8966,-93.5973,1029.78,11111222 
TABS,ioos:station:wmo:42047:1,2010-01-05T07:30:00Z,27.8966,-93.5973,1029.61,11111222 
TABS,ioos:station:wmo:42047:1,2010-01-05T08:00:00Z,27.8966,-93.5973,1029.4,11111222 
TABS,ioos:station:wmo:42047:1,2010-01-05T08:30:00Z,27.8966,-93.5973,1029.47,11111222 
TABS,ioos:station:wmo:42047:1,2010-01-05T09:00:00Z,27.8966,-93.5973,1029.48,11111222 
TABS,ioos:station:wmo:42047:1,2010-01-05T09:30:00Z,27.8966,-93.5973,1029.65,11111222 
TABS,ioos:station:wmo:42047:1,2010-01-05T10:00:00Z,27.8966,-93.5973,1029.49,11111222 
TABS,ioos:station:wmo:42047:1,2010-01-05T10:30:00Z,27.8966,-93.5973,1029.89,11111222 
TABS,ioos:station:wmo:42047:1,2010-01-05T11:00:00Z,27.8966,-93.5973,1029.85,11111222 
TABS,ioos:station:wmo:42047:1,2010-01-05T11:30:00Z,27.8966,-93.5973,1030.1,11111222 
TABS,ioos:station:wmo:42047:1,2010-01-05T12:00:00Z,27.8966,-93.5973,1030.26,11111222 
TABS,ioos:station:wmo:42047:1,2010-01-05T12:30:00Z,27.8966,-93.5973,1030.74,11111222 
TABS,ioos:station:wmo:42047:1,2010-01-05T13:00:00Z,27.8966,-93.5973,1030.82,11111222 
TABS,ioos:station:wmo:42047:1,2010-01-05T13:30:00Z,27.8966,-93.5973,1030.53,11111222 
TABS,ioos:station:wmo:42047:1,2010-01-05T14:00:00Z,27.8966,-93.5973,1031.04,11111222 
TABS,ioos:station:wmo:42047:1,2010-01-05T14:30:00Z,27.8966,-93.5973,1031.12,11111222 
TABS,ioos:station:wmo:42047:1,2010-01-05T15:00:00Z,27.8966,-93.5973,1031.47,11111222 
TABS,ioos:station:wmo:42047:1,2010-01-05T15:30:00Z,27.8966,-93.5973,1031.38,11111222 
TABS,ioos:station:wmo:42047:1,2010-01-05T16:00:00Z,27.8966,-93.5973,1031.53,11111222 
TABS,ioos:station:wmo:42047:1,2010-01-05T16:30:00Z,27.8966,-93.5973,1031.42,11111222 
TABS,ioos:station:wmo:42047:1,2010-01-05T17:00:00Z,27.8966,-93.5973,1031.35,11111222 
TABS,ioos:station:wmo:42047:1,2010-01-05T17:30:00Z,27.8966,-93.5973,1030.85,11111222 
TABS,ioos:station:wmo:42047:1,2010-01-05T18:00:00Z,27.8966,-93.5973,1030.29,11111222 
TABS,ioos:station:wmo:42047:1,2010-01-05T18:30:00Z,27.8966,-93.5973,1029.64,11111222 
TABS,ioos:station:wmo:42047:1,2010-01-05T19:00:00Z,27.8966,-93.5973,1029.39,11111222 
TABS,ioos:station:wmo:42047:1,2010-01-05T19:30:00Z,27.8966,-93.5973,1029.04,11111222 
TABS,ioos:station:wmo:42047:1,2010-01-05T20:00:00Z,27.8966,-93.5973,1028.73,11111222 
TABS,ioos:station:wmo:42047:1,2010-01-05T20:30:00Z,27.8966,-93.5973,1028.37,11111222 
TABS,ioos:station:wmo:42047:1,2010-01-05T21:00:00Z,27.8966,-93.5973,1028.54,11111222 
TABS,ioos:station:wmo:42047:1,2010-01-05T21:30:00Z,27.8966,-93.5973,1028.36,11111222 
TABS,ioos:station:wmo:42047:1,2010-01-05T22:00:00Z,27.8966,-93.5973,1028.39,11111222 
TABS,ioos:station:wmo:42047:1,2010-01-05T22:30:00Z,27.8966,-93.5973,1028.32,11111222 
TABS,ioos:station:wmo:42047:1,2010-01-05T23:00:00Z,27.8966,-93.5973,1028.24,11111222 
TABS,ioos:station:wmo:42047:1,2010-01-05T23:30:00Z,27.8966,-93.5973,1028.48,11111222 
TABS,ioos:station:wmo:42047:1,2010-01-06T00:00:00Z,27.8966,-93.5973,1028.34,11111222 
TABS,ioos:station:wmo:42047:1,2010-01-06T00:30:00Z,27.8966,-93.5973,1028.36,11111222 
TABS,ioos:station:wmo:42047:1,2010-01-06T01:00:00Z,27.8966,-93.5973,1028.32,11111222 
TABS,ioos:station:wmo:42047:1,2010-01-06T01:30:00Z,27.8966,-93.5973,1028.33,11111222 
TABS,ioos:station:wmo:42047:1,2010-01-06T02:00:00Z,27.8966,-93.5973,1028.45,11111222 
TABS,ioos:station:wmo:42047:1,2010-01-06T02:30:00Z,27.8966,-93.5973,1028.39,11111222 
TABS,ioos:station:wmo:42047:1,2010-01-06T03:00:00Z,27.8966,-93.5973,1028.31,11111222 
TABS,ioos:station:wmo:42047:1,2010-01-06T03:30:00Z,27.8966,-93.5973,1028.26,11111222 
TABS,ioos:station:wmo:42047:1,2010-01-06T04:00:00Z,27.8966,-93.5973,1028.03,11111222 
TABS,ioos:station:wmo:42047:1,2010-01-06T04:30:00Z,27.8966,-93.5973,1028.19,11111222 
TABS,ioos:station:wmo:42047:1,2010-01-06T05:00:00Z,27.8966,-93.5973,1028.09,11111222 
TABS,ioos:station:wmo:42047:1,2010-01-06T05:30:00Z,27.8966,-93.5973,1028.16,11111222 
TABS,ioos:station:wmo:42047:1,2010-01-06T06:00:00Z,27.8966,-93.5973,1027.87,11111222 
TABS,ioos:station:wmo:42047:1,2010-01-06T06:30:00Z,27.8966,-93.5973,1027.53,11111222 
TABS,ioos:station:wmo:42047:1,2010-01-06T07:00:00Z,27.8966,-93.5973,1027.59,11111222 
TABS,ioos:station:wmo:42047:1,2010-01-06T07:30:00Z,27.8966,-93.5973,1026.99,11111222 
TABS,ioos:station:wmo:42047:1,2010-01-06T08:00:00Z,27.8966,-93.5973,1026.69,11111222 
TABS,ioos:station:wmo:42047:1,2010-01-06T08:30:00Z,27.8966,-93.5973,1026.35,11111222 
TABS,ioos:station:wmo:42047:1,2010-01-06T09:00:00Z,27.8966,-93.5973,1026.15,11111222 
TABS,ioos:station:wmo:42047:1,2010-01-06T09:30:00Z,27.8966,-93.5973,1025.94,11111222 
TABS,ioos:station:wmo:42047:1,2010-01-06T10:00:00Z,27.8966,-93.5973,1025.47,11111222 
TABS,ioos:station:wmo:42047:1,2010-01-06T10:30:00Z,27.8966,-93.5973,1025.25,11111222 
TABS,ioos:station:wmo:42047:1,2010-01-06T11:00:00Z,27.8966,-93.5973,1025.27,11111222 
TABS,ioos:station:wmo:42047:1,2010-01-06T11:30:00Z,27.8966,-93.5973,1025.26,11111222 
TABS,ioos:station:wmo:42047:1,2010-01-06T12:00:00Z,27.8966,-93.5973,1025.25,11111222 
TABS,ioos:station:wmo:42047:1,2010-01-06T12:30:00Z,27.8966,-93.5973,1025.54,11111222 
TABS,ioos:station:wmo:42047:1,2010-01-06T13:00:00Z,27.8966,-93.5973,1025.42,11111222 
TABS,ioos:station:wmo:42047:1,2010-01-06T13:30:00Z,27.8966,-93.5973,1025.39,11111222 
TABS,ioos:station:wmo:42047:1,2010-01-06T14:00:00Z,27.8966,-93.5973,1025.09,11111222 
TABS,ioos:station:wmo:42047:1,2010-01-06T14:30:00Z,27.8966,-93.5973,1025.6,11111222 
TABS,ioos:station:wmo:42047:1,2010-01-06T15:00:00Z,27.8966,-93.5973,1025.36,11111222 
TABS,ioos:station:wmo:42047:1,2010-01-06T15:30:00Z,27.8966,-93.5973,1025.69,11111222 
TABS,ioos:station:wmo:42047:1,2010-01-06T16:00:00Z,27.8966,-93.5973,1025.92,11111222 
TABS,ioos:station:wmo:42047:1,2010-01-06T16:30:00Z,27.8966,-93.5973,1025.66,11111222 
TABS,ioos:station:wmo:42047:1,2010-01-06T17:00:00Z,27.8966,-93.5973,1024.88,11111222 
TABS,ioos:station:wmo:42047:1,2010-01-06T17:30:00Z,27.8966,-93.5973,1024.43,11111222 
TABS,ioos:station:wmo:42047:1,2010-01-06T18:00:00Z,27.8966,-93.5973,1023.48,11111222 
TABS,ioos:station:wmo:42047:1,2010-01-06T18:30:00Z,27.8966,-93.5973,1023.16,11111222 